STARLINK-2421

Last updated on Sat May 08 2021 00:02:03 GMT+0000 (Coordinated Universal Time)

1 48098U 21027G 21127.58334491 -.00056075 00000-0 -39686-3 0 9991 2 48098 53.0473 191.7502 0002319 18.8068 282.3612 15.73245436 1773

Satellite not in orbit